Time,TemperatureF,DewpointF,PressureIn,WindDirection,WindDirectionDegrees,WindSpeedMPH,WindSpeedGustMPH,Humidity,HourlyPrecipIn,Conditions,Clouds,dailyrainin,SoftwareType,DateUTC
2013-04-29 00:01:00,64.8,60.5,30.10,South,175,10.0,16.0,86,0.00,,---,0.00,VWS V14.01,2013-04-29 04:01:00,
2013-04-29 00:02:00,64.8,60.5,30.10,South,183,16.0,16.0,86,0.00,,---,0.00,VWS V14.01,2013-04-29 04:02:00,
2013-04-29 00:07:00,64.7,60.4,30.10,South,172,11.0,17.0,86,0.00,,---,0.00,VWS V14.01,2013-04-29 04:07:00,
2013-04-29 00:12:00,64.7,60.4,30.10,South,182,13.0,17.0,86,0.00,,---,0.00,VWS V14.01,2013-04-29 04:12:00,
2013-04-29 00:17:00,64.7,60.4,30.10,SSW,200,14.0,17.0,86,0.00,,---,0.00,VWS V14.01,2013-04-29 04:17:00,
2013-04-29 00:22:00,64.6,60.7,30.10,South,177,9.0,17.0,87,0.00,,---,0.00,VWS V14.01,2013-04-29 04:22:00,
2013-04-29 00:27:00,64.5,60.5,30.10,SSW,198,10.0,17.0,87,0.00,,---,0.00,VWS V14.01,2013-04-29 04:27:00,
2013-04-29 00:32:00,64.5,60.5,30.10,SSW,195,10.0,16.0,87,0.00,,---,0.00,VWS V14.01,2013-04-29 04:32:00,
2013-04-29 00:37:00,64.5,60.5,30.10,South,191,11.0,18.0,87,0.00,,---,0.00,VWS V14.01,2013-04-29 04:37:00,
2013-04-29 00:42:00,64.5,60.5,30.10,South,179,14.0,18.0,87,0.00,,---,0.00,VWS V14.01,2013-04-29 04:42:00,
2013-04-29 00:47:00,64.5,60.5,30.10,SSW,200,15.0,18.0,87,0.00,,---,0.00,VWS V14.01,2013-04-29 04:47:00,
2013-04-29 00:52:00,64.4,60.5,30.10,South,190,12.0,19.0,87,0.00,,---,0.00,VWS V14.01,2013-04-29 04:52:00,
2013-04-29 00:57:00,64.4,60.5,30.10,SSW,195,13.0,19.0,87,0.00,,---,0.00,VWS V14.01,2013-04-29 04:57:00,
2013-04-29 01:02:00,64.4,60.5,30.10,SSW,192,11.0,17.0,87,0.00,,---,0.00,VWS V14.01,2013-04-29 05:02:00,
2013-04-29 01:07:00,64.5,60.5,30.10,SSW,195,17.0,17.0,87,0.00,,---,0.00,VWS V14.01,2013-04-29 05:07:00,
2013-04-29 01:12:00,64.5,60.5,30.10,South,186,8.0,17.0,87,0.00,,---,0.00,VWS V14.01,2013-04-29 05:12:00,
2013-04-29 01:17:00,64.5,60.5,30.10,South,182,13.0,17.0,87,0.00,,---,0.00,VWS V14.01,2013-04-29 05:17:00,
2013-04-29 01:22:00,64.5,60.5,30.10,South,173,9.0,18.0,87,0.00,,---,0.00,VWS V14.01,2013-04-29 05:22:00,
2013-04-29 01:27:00,64.4,60.5,30.09,South,178,13.0,19.0,87,0.00,,---,0.00,VWS V14.01,2013-04-29 05:27:00,
2013-04-29 01:32:00,64.4,60.5,30.09,SSW,192,14.0,17.0,87,0.00,,---,0.00,VWS V14.01,2013-04-29 05:32:00,
2013-04-29 01:37:00,64.4,60.5,30.09,South,190,14.0,17.0,87,0.00,,---,0.00,VWS V14.01,2013-04-29 05:37:00,
2013-04-29 01:42:00,64.4,60.5,30.08,South,190,10.0,18.0,87,0.00,,---,0.00,VWS V14.01,2013-04-29 05:42:00,
2013-04-29 01:48:00,64.4,60.5,30.08,South,169,16.0,18.0,87,0.00,,---,0.00,VWS V14.01,2013-04-29 05:48:00,
2013-04-29 01:53:00,64.4,60.5,30.08,South,190,14.0,18.0,87,0.00,,---,0.00,VWS V14.01,2013-04-29 05:53:00,
2013-04-29 01:58:00,64.5,60.2,30.08,South,180,12.0,13.0,86,0.00,,---,0.00,VWS V14.01,2013-04-29 05:58:00,
2013-04-29 02:03:00,64.4,60.1,30.08,South,173,13.0,17.0,86,0.00,,---,0.00,VWS V14.01,2013-04-29 06:03:00,
2013-04-29 02:08:00,64.4,60.1,30.08,SSW,198,9.0,17.0,86,0.00,,---,0.00,VWS V14.01,2013-04-29 06:08:00,
2013-04-29 02:13:00,64.4,60.1,30.08,South,180,11.0,17.0,86,0.00,,---,0.00,VWS V14.01,2013-04-29 06:13:00,
2013-04-29 02:18:00,64.4,60.1,30.08,South,181,9.0,17.0,86,0.00,,---,0.00,VWS V14.01,2013-04-29 06:18:00,
2013-04-29 02:23:00,64.4,60.5,30.08,South,186,11.0,17.0,87,0.00,,---,0.00,VWS V14.01,2013-04-29 06:23:00,
2013-04-29 02:28:00,64.4,60.5,30.07,SSW,198,11.0,12.0,87,0.00,,---,0.00,VWS V14.01,2013-04-29 06:28:00,
2013-04-29 02:33:00,64.3,60.3,30.07,SSW,199,8.0,12.0,87,0.00,,---,0.00,VWS V14.01,2013-04-29 06:33:00,
2013-04-29 02:38:00,64.3,60.3,30.07,South,179,11.0,12.0,87,0.00,,---,0.00,VWS V14.01,2013-04-29 06:38:00,
2013-04-29 02:43:00,64.2,60.3,30.07,South,185,12.0,13.0,87,0.00,,---,0.00,VWS V14.01,2013-04-29 06:43:00,
2013-04-29 02:48:00,64.2,60.3,30.07,South,177,12.0,13.0,87,0.00,,---,0.00,VWS V14.01,2013-04-29 06:48:00,
2013-04-29 02:53:00,64.1,60.2,30.07,South,188,12.0,13.0,87,0.00,,---,0.00,VWS V14.01,2013-04-29 06:53:00,
2013-04-29 02:58:00,64.1,60.2,30.06,South,184,11.0,12.0,87,0.00,,---,0.00,VWS V14.01,2013-04-29 06:58:00,
2013-04-29 03:03:00,64.0,60.1,30.06,SSW,193,9.0,14.0,87,0.00,,---,0.00,VWS V14.01,2013-04-29 07:03:00,
2013-04-29 03:08:00,64.0,60.4,30.06,SSW,198,12.0,14.0,88,0.00,,---,0.00,VWS V14.01,2013-04-29 07:08:00,
2013-04-29 03:13:00,64.0,60.4,30.06,SSW,193,6.0,14.0,88,0.00,,---,0.00,VWS V14.01,2013-04-29 07:13:00,
2013-04-29 03:18:00,64.0,60.4,30.06,South,176,7.0,14.0,88,0.00,,---,0.00,VWS V14.01,2013-04-29 07:18:00,
2013-04-29 03:23:00,64.0,60.4,30.06,SSW,192,9.0,14.0,88,0.00,,---,0.00,VWS V14.01,2013-04-29 07:23:00,
2013-04-29 03:29:00,63.9,60.3,30.06,SSW,198,9.0,12.0,88,0.00,,---,0.00,VWS V14.01,2013-04-29 07:29:00,
2013-04-29 03:34:00,64.0,60.4,30.06,SSW,196,10.0,14.0,88,0.00,,---,0.00,VWS V14.01,2013-04-29 07:34:00,
2013-04-29 03:39:00,64.0,60.4,30.06,South,173,8.0,15.0,88,0.00,,---,0.00,VWS V14.01,2013-04-29 07:39:00,
2013-04-29 03:44:00,64.0,60.4,30.06,South,173,6.0,15.0,88,0.00,,---,0.00,VWS V14.01,2013-04-29 07:44:00,
2013-04-29 03:49:00,64.0,60.4,30.06,SSW,196,9.0,15.0,88,0.00,,---,0.00,VWS V14.01,2013-04-29 07:49:00,
2013-04-29 03:54:00,64.0,60.4,30.06,SSE,149,9.0,15.0,88,0.00,,---,0.00,VWS V14.01,2013-04-29 07:54:00,
2013-04-29 03:59:00,64.0,60.1,30.05,South,184,11.0,15.0,87,0.00,,---,0.00,VWS V14.01,2013-04-29 07:59:00,
2013-04-29 04:04:00,64.1,60.2,30.05,South,184,13.0,15.0,87,0.00,,---,0.00,VWS V14.01,2013-04-29 08:04:00,
2013-04-29 04:09:00,64.2,60.3,30.05,South,186,12.0,15.0,87,0.00,,---,0.00,VWS V14.01,2013-04-29 08:09:00,
2013-04-29 04:14:00,64.2,60.3,30.05,South,177,12.0,16.0,87,0.00,,---,0.00,VWS V14.01,2013-04-29 08:14:00,
2013-04-29 04:19:00,64.2,60.3,30.04,SSE,154,7.0,17.0,87,0.00,,---,0.00,VWS V14.01,2013-04-29 08:19:00,
2013-04-29 04:24:00,64.2,60.3,30.04,South,178,11.0,17.0,87,0.00,,---,0.00,VWS V14.01,2013-04-29 08:24:00,
2013-04-29 04:29:00,64.2,60.3,30.05,South,190,5.0,12.0,87,0.00,,---,0.00,VWS V14.01,2013-04-29 08:29:00,
2013-04-29 04:34:00,64.2,60.3,30.04,South,186,9.0,15.0,87,0.00,,---,0.00,VWS V14.01,2013-04-29 08:34:00,
2013-04-29 04:39:00,64.2,60.3,30.05,South,188,12.0,16.0,87,0.00,,---,0.00,VWS V14.01,2013-04-29 08:39:00,
2013-04-29 04:44:00,64.2,60.3,30.04,SSW,203,11.0,17.0,87,0.00,,---,0.00,VWS V14.01,2013-04-29 08:44:00,
2013-04-29 04:49:00,64.2,60.3,30.04,SSW,195,10.0,17.0,87,0.00,,---,0.00,VWS V14.01,2013-04-29 08:49:00,
2013-04-29 04:54:00,64.2,60.3,30.03,South,181,12.0,17.0,87,0.00,,---,0.00,VWS V14.01,2013-04-29 08:54:00,
2013-04-29 04:59:00,64.2,60.3,30.04,South,186,10.0,13.0,87,0.00,,---,0.00,VWS V14.01,2013-04-29 08:59:00,
2013-04-29 05:04:00,64.2,60.3,30.04,South,186,13.0,17.0,87,0.00,,---,0.00,VWS V14.01,2013-04-29 09:04:00,
2013-04-29 05:09:00,64.2,60.3,30.03,SSE,165,11.0,17.0,87,0.00,,---,0.00,VWS V14.01,2013-04-29 09:09:00,
2013-04-29 05:14:00,64.2,60.6,30.03,South,191,13.0,17.0,88,0.00,,---,0.00,VWS V14.01,2013-04-29 09:14:00,
2013-04-29 05:20:00,64.2,60.6,30.03,SSW,200,8.0,17.0,88,0.00,,---,0.00,VWS V14.01,2013-04-29 09:20:00,
2013-04-29 05:25:00,64.2,60.6,30.03,SSW,205,11.0,17.0,88,0.00,,---,0.00,VWS V14.01,2013-04-29 09:25:00,
2013-04-29 05:30:00,64.2,60.6,30.03,SSE,163,9.0,13.0,88,0.00,,---,0.00,VWS V14.01,2013-04-29 09:30:00,
2013-04-29 05:35:00,64.2,60.6,30.03,SSW,198,9.0,14.0,88,0.00,,---,0.00,VWS V14.01,2013-04-29 09:35:00,
2013-04-29 05:40:00,64.1,60.5,30.03,South,190,13.0,16.0,88,0.00,,---,0.00,VWS V14.01,2013-04-29 09:40:00,
2013-04-29 05:45:00,64.1,60.5,30.03,South,183,10.0,16.0,88,0.00,,---,0.00,VWS V14.01,2013-04-29 09:45:00,
2013-04-29 05:50:00,64.1,60.5,30.03,South,186,14.0,16.0,88,0.00,,---,0.00,VWS V14.01,2013-04-29 09:50:00,
2013-04-29 05:55:00,64.1,60.8,30.03,South,191,8.0,16.0,89,0.00,,---,0.00,VWS V14.01,2013-04-29 09:55:00,
2013-04-29 06:00:00,64.1,60.8,30.03,South,182,6.0,13.0,89,0.00,,---,0.00,VWS V14.01,2013-04-29 10:00:00,
2013-04-29 06:05:00,64.1,60.8,30.03,South,186,6.0,13.0,89,0.00,,---,0.00,VWS V14.01,2013-04-29 10:05:00,
2013-04-29 06:10:00,64.0,60.7,30.04,South,189,10.0,13.0,89,0.00,,---,0.00,VWS V14.01,2013-04-29 10:10:00,
2013-04-29 06:15:00,64.0,60.7,30.04,South,178,7.0,13.0,89,0.00,,---,0.00,VWS V14.01,2013-04-29 10:15:00,
2013-04-29 06:20:00,64.0,60.7,30.04,South,185,6.0,13.0,89,0.00,,---,0.00,VWS V14.01,2013-04-29 10:20:00,
2013-04-29 06:25:00,64.0,60.7,30.04,SSW,202,8.0,13.0,89,0.00,,---,0.00,VWS V14.01,2013-04-29 10:25:00,
2013-04-29 06:30:00,64.0,61.0,30.04,South,190,8.0,12.0,90,0.00,,---,0.00,VWS V14.01,2013-04-29 10:30:00,
2013-04-29 06:35:00,63.9,60.9,30.04,South,189,10.0,12.0,90,0.00,,---,0.00,VWS V14.01,2013-04-29 10:35:00,
2013-04-29 06:40:00,63.9,60.9,30.04,SSW,196,9.0,12.0,90,0.00,,---,0.00,VWS V14.01,2013-04-29 10:40:00,
2013-04-29 06:45:00,63.8,60.8,30.05,South,185,6.0,12.0,90,0.00,,---,0.00,VWS V14.01,2013-04-29 10:45:00,
2013-04-29 06:50:00,63.8,60.8,30.05,South,180,7.0,12.0,90,0.00,,---,0.00,VWS V14.01,2013-04-29 10:50:00,
2013-04-29 06:55:00,63.8,60.8,30.05,South,185,7.0,14.0,90,0.00,,---,0.00,VWS V14.01,2013-04-29 10:55:00,
2013-04-29 07:00:00,63.8,60.8,30.05,South,188,9.0,11.0,90,0.00,,---,0.00,VWS V14.01,2013-04-29 11:00:00,
2013-04-29 07:06:00,63.8,60.8,30.05,SSW,194,5.0,12.0,90,0.01,,---,0.01,VWS V14.01,2013-04-29 11:06:00,
2013-04-29 07:11:00,63.8,60.8,30.05,SSW,195,11.0,13.0,90,0.01,,---,0.01,VWS V14.01,2013-04-29 11:11:00,
2013-04-29 07:16:00,63.8,60.8,30.05,South,174,5.0,14.0,90,0.01,,---,0.01,VWS V14.01,2013-04-29 11:16:00,
2013-04-29 07:21:00,63.7,61.0,30.05,SSE,163,10.0,15.0,91,0.02,,---,0.02,VWS V14.01,2013-04-29 11:21:00,
2013-04-29 07:26:00,63.7,61.0,30.05,SSW,198,9.0,15.0,91,0.02,,---,0.02,VWS V14.01,2013-04-29 11:26:00,
2013-04-29 07:31:00,63.6,60.9,30.05,SSW,198,11.0,13.0,91,0.02,,---,0.02,VWS V14.01,2013-04-29 11:31:00,
2013-04-29 07:36:00,63.6,60.9,30.06,SSW,195,8.0,13.0,91,0.03,,---,0.03,VWS V14.01,2013-04-29 11:36:00,
2013-04-29 07:41:00,63.6,60.9,30.05,South,183,7.0,13.0,91,0.04,,---,0.04,VWS V14.01,2013-04-29 11:41:00,
2013-04-29 07:46:00,63.6,60.9,30.06,South,173,6.0,13.0,91,0.04,,---,0.04,VWS V14.01,2013-04-29 11:46:00,
2013-04-29 07:51:00,63.5,60.8,30.06,SSW,196,10.0,13.0,91,0.04,,---,0.04,VWS V14.01,2013-04-29 11:51:00,
2013-04-29 07:56:00,63.5,61.1,30.06,SSW,192,8.0,13.0,92,0.04,,---,0.04,VWS V14.01,2013-04-29 11:56:00,
2013-04-29 08:01:00,63.5,61.1,30.06,South,188,9.0,12.0,92,0.04,,---,0.04,VWS V14.01,2013-04-29 12:01:00,
2013-04-29 08:06:00,63.6,61.2,30.06,SSW,196,14.0,16.0,92,0.05,,---,0.05,VWS V14.01,2013-04-29 12:06:00,
2013-04-29 08:11:00,63.6,61.2,30.06,South,178,12.0,16.0,92,0.05,,---,0.05,VWS V14.01,2013-04-29 12:11:00,
2013-04-29 08:16:00,63.6,61.2,30.06,South,191,7.0,16.0,92,0.06,,---,0.06,VWS V14.01,2013-04-29 12:16:00,
2013-04-29 08:21:00,63.6,61.2,30.06,South,182,10.0,18.0,92,0.07,,---,0.07,VWS V14.01,2013-04-29 12:21:00,
2013-04-29 08:26:00,63.6,61.2,30.06,South,187,14.0,18.0,92,0.09,,---,0.09,VWS V14.01,2013-04-29 12:26:00,
2013-04-29 08:31:00,63.6,61.2,30.06,SSW,192,10.0,16.0,92,0.09,,---,0.11,VWS V14.01,2013-04-29 12:31:00,
2013-04-29 08:36:00,63.6,61.2,30.07,South,182,10.0,16.0,92,0.09,,---,0.11,VWS V14.01,2013-04-29 12:36:00,
2013-04-29 08:41:00,63.6,61.2,30.07,SSW,194,10.0,16.0,92,0.11,,---,0.13,VWS V14.01,2013-04-29 12:41:00,
2013-04-29 08:46:00,63.5,61.4,30.07,SSW,203,9.0,16.0,93,0.15,,---,0.17,VWS V14.01,2013-04-29 12:46:00,
2013-04-29 08:51:00,63.5,61.4,30.07,SSW,205,6.0,16.0,93,0.18,,---,0.20,VWS V14.01,2013-04-29 12:51:00,
2013-04-29 08:56:00,63.4,61.3,30.06,South,182,5.0,16.0,93,0.22,,---,0.25,VWS V14.01,2013-04-29 12:56:00,
2013-04-29 09:01:00,63.4,61.3,30.07,SSE,167,4.0,9.0,93,0.23,,---,0.27,VWS V14.01,2013-04-29 13:01:00,
2013-04-29 09:06:00,63.3,61.2,30.06,SE,129,5.0,9.0,93,0.25,,---,0.29,VWS V14.01,2013-04-29 13:06:00,
2013-04-29 09:11:00,63.2,61.2,30.06,SE,139,3.0,9.0,93,0.28,,---,0.32,VWS V14.01,2013-04-29 13:11:00,
2013-04-29 09:16:00,63.1,61.0,30.06,SE,130,6.0,10.0,93,0.31,,---,0.35,VWS V14.01,2013-04-29 13:16:00,
2013-04-29 09:22:00,63.0,61.2,30.06,SE,129,6.0,11.0,94,0.33,,---,0.37,VWS V14.01,2013-04-29 13:22:00,
2013-04-29 09:27:00,62.9,61.2,30.06,SE,130,5.0,11.0,94,0.36,,---,0.40,VWS V14.01,2013-04-29 13:27:00,
2013-04-29 09:32:00,62.9,61.2,30.06,ESE,123,7.0,10.0,94,0.32,,---,0.42,VWS V14.01,2013-04-29 13:32:00,
2013-04-29 09:37:00,62.7,61.0,30.06,ESE,123,5.0,11.0,94,0.35,,---,0.45,VWS V14.01,2013-04-29 13:37:00,
2013-04-29 09:42:00,62.7,61.0,30.06,ESE,111,9.0,11.0,94,0.37,,---,0.47,VWS V14.01,2013-04-29 13:42:00,
2013-04-29 09:47:00,62.7,61.2,30.06,SE,126,5.0,13.0,95,0.39,,---,0.49,VWS V14.01,2013-04-29 13:47:00,
2013-04-29 09:52:00,62.7,61.2,30.05,ESE,115,9.0,13.0,95,0.42,,---,0.52,VWS V14.01,2013-04-29 13:52:00,
2013-04-29 09:57:00,62.7,61.2,30.05,ESE,109,7.0,13.0,95,0.45,,---,0.55,VWS V14.01,2013-04-29 13:57:00,
2013-04-29 10:02:00,62.7,61.2,30.05,SE,134,13.0,13.0,95,0.32,,---,0.57,VWS V14.01,2013-04-29 14:02:00,
2013-04-29 10:07:00,62.7,61.2,30.05,SE,128,11.0,15.0,95,0.34,,---,0.59,VWS V14.01,2013-04-29 14:07:00,
2013-04-29 10:12:00,62.7,61.2,30.05,ESE,114,8.0,15.0,95,0.36,,---,0.61,VWS V14.01,2013-04-29 14:12:00,
2013-04-29 10:17:00,62.7,61.2,30.05,ESE,118,9.0,15.0,95,0.39,,---,0.64,VWS V14.01,2013-04-29 14:17:00,
2013-04-29 10:22:00,62.7,61.2,30.05,ESE,123,11.0,16.0,95,0.41,,---,0.66,VWS V14.01,2013-04-29 14:22:00,
2013-04-29 10:27:00,62.7,61.2,30.07,East,88,3.0,16.0,95,0.43,,---,0.68,VWS V14.01,2013-04-29 14:27:00,
2013-04-29 10:32:00,62.8,61.3,30.06,NE,38,11.0,12.0,95,0.30,,---,0.70,VWS V14.01,2013-04-29 14:32:00,
2013-04-29 10:37:00,62.8,61.7,30.05,NNE,21,15.0,24.0,96,0.31,,---,0.71,VWS V14.01,2013-04-29 14:37:00,
2013-04-29 10:42:00,62.9,61.8,30.07,NNE,26,4.0,24.0,96,0.33,,---,0.73,VWS V14.01,2013-04-29 14:42:00,
2013-04-29 10:47:00,63.1,61.9,30.06,East,86,6.0,24.0,96,0.35,,---,0.75,VWS V14.01,2013-04-29 14:47:00,
2013-04-29 10:52:00,63.1,61.9,30.05,SE,142,11.0,24.0,96,0.37,,---,0.77,VWS V14.01,2013-04-29 14:52:00,
2013-04-29 10:57:00,63.1,61.9,30.05,ESE,121,14.0,24.0,96,0.39,,---,0.79,VWS V14.01,2013-04-29 14:57:00,
2013-04-29 11:02:00,63.1,61.9,30.05,SE,134,10.0,22.0,96,0.24,,---,0.80,VWS V14.01,2013-04-29 15:02:00,
2013-04-29 11:07:00,63.1,61.9,30.05,South,176,12.0,22.0,96,0.26,,---,0.82,VWS V14.01,2013-04-29 15:07:00,
2013-04-29 11:12:00,62.9,61.8,30.05,SSW,199,13.0,22.0,96,0.27,,---,0.83,VWS V14.01,2013-04-29 15:12:00,
2013-04-29 11:17:00,62.5,61.0,30.06,SSW,209,14.0,22.0,95,0.29,,---,0.85,VWS V14.01,2013-04-29 15:17:00,
2013-04-29 11:22:00,62.3,60.8,30.06,SSW,207,12.0,22.0,95,0.30,,---,0.86,VWS V14.01,2013-04-29 15:22:00,
2013-04-29 11:27:00,62.2,60.8,30.06,South,190,12.0,22.0,95,0.31,,---,0.87,VWS V14.01,2013-04-29 15:27:00,
2013-04-29 11:32:00,62.2,61.0,30.06,SSW,193,11.0,14.0,96,0.20,,---,0.88,VWS V14.01,2013-04-29 15:32:00,
2013-04-29 11:37:00,62.3,61.2,30.05,South,188,12.0,14.0,96,0.21,,---,0.89,VWS V14.01,2013-04-29 15:37:00,
2013-04-29 11:42:00,62.3,61.2,30.04,South,186,7.0,15.0,96,0.22,,---,0.90,VWS V14.01,2013-04-29 15:42:00,
2013-04-29 11:47:00,62.3,61.2,30.04,South,180,5.0,15.0,96,0.22,,---,0.90,VWS V14.01,2013-04-29 15:47:00,
2013-04-29 11:52:00,62.3,61.2,30.05,SE,140,6.0,15.0,96,0.22,,---,0.90,VWS V14.01,2013-04-29 15:52:00,
2013-04-29 11:57:00,62.3,61.2,30.05,SSE,155,3.0,15.0,96,0.22,,---,0.90,VWS V14.01,2013-04-29 15:57:00,
2013-04-29 12:02:00,62.3,61.2,30.05,SSE,153,5.0,5.0,96,0.11,,---,0.90,VWS V14.01,2013-04-29 16:02:00,
2013-04-29 12:07:00,62.3,61.2,30.04,ESE,121,7.0,11.0,96,0.11,,---,0.90,VWS V14.01,2013-04-29 16:07:00,
2013-04-29 12:12:00,62.3,61.2,30.05,SE,136,3.0,11.0,96,0.11,,---,0.90,VWS V14.01,2013-04-29 16:12:00,
2013-04-29 12:17:00,62.3,61.2,30.05,SE,135,3.0,11.0,96,0.12,,---,0.91,VWS V14.01,2013-04-29 16:17:00,
2013-04-29 12:22:00,62.4,61.2,30.05,SE,141,4.0,11.0,96,0.12,,---,0.91,VWS V14.01,2013-04-29 16:22:00,
2013-04-29 12:27:00,62.6,61.5,30.05,SSE,165,5.0,11.0,96,0.12,,---,0.91,VWS V14.01,2013-04-29 16:27:00,
2013-04-29 12:32:00,62.6,61.5,30.05,SE,143,4.0,6.0,96,0.04,,---,0.91,VWS V14.01,2013-04-29 16:32:00,
2013-04-29 12:37:00,62.6,61.5,30.04,South,169,4.0,8.0,96,0.04,,---,0.91,VWS V14.01,2013-04-29 16:37:00,
2013-04-29 12:43:00,62.6,61.5,30.03,South,169,4.0,10.0,96,0.04,,---,0.91,VWS V14.01,2013-04-29 16:43:00,
2013-04-29 12:48:00,62.7,61.5,30.03,SE,138,3.0,10.0,96,0.04,,---,0.91,VWS V14.01,2013-04-29 16:48:00,
2013-04-29 12:53:00,62.7,61.5,30.02,SE,144,5.0,10.0,96,0.04,,---,0.91,VWS V14.01,2013-04-29 16:53:00,
2013-04-29 12:58:00,62.9,61.8,30.02,SE,126,13.0,13.0,96,0.01,,---,0.91,VWS V14.01,2013-04-29 16:58:00,
2013-04-29 13:03:00,62.7,61.5,30.02,SE,136,5.0,14.0,96,0.01,,---,0.91,VWS V14.01,2013-04-29 17:03:00,
2013-04-29 13:08:00,62.8,61.7,30.02,SSE,148,4.0,14.0,96,0.01,,---,0.91,VWS V14.01,2013-04-29 17:08:00,
2013-04-29 13:13:00,62.7,61.5,30.02,SE,145,9.0,14.0,96,0.01,,---,0.91,VWS V14.01,2013-04-29 17:13:00,
2013-04-29 13:18:00,62.7,61.5,30.02,SE,135,6.0,14.0,96,0.01,,---,0.91,VWS V14.01,2013-04-29 17:18:00,
2013-04-29 13:23:00,62.8,61.7,30.02,SE,133,3.0,14.0,96,0.01,,---,0.91,VWS V14.01,2013-04-29 17:23:00,
2013-04-29 13:28:00,63.0,61.8,30.03,South,171,5.0,6.0,96,0.00,,---,0.91,VWS V14.01,2013-04-29 17:28:00,
2013-04-29 13:33:00,63.2,62.0,30.02,SSE,165,4.0,7.0,96,0.00,,---,0.91,VWS V14.01,2013-04-29 17:33:00,
2013-04-29 13:38:00,63.3,62.1,30.02,South,179,0.0,7.0,96,0.00,,---,0.91,VWS V14.01,2013-04-29 17:38:00,
2013-04-29 13:43:00,63.5,62.3,30.02,SE,144,4.0,7.0,96,0.00,,---,0.91,VWS V14.01,2013-04-29 17:43:00,
2013-04-29 13:48:00,63.7,62.5,30.02,South,170,3.0,7.0,96,0.00,,---,0.91,VWS V14.01,2013-04-29 17:48:00,
2013-04-29 13:53:00,63.9,62.7,30.02,SSE,160,3.0,7.0,96,0.00,,---,0.91,VWS V14.01,2013-04-29 17:53:00,
2013-04-29 13:58:00,64.1,62.9,30.02,South,176,4.0,4.0,96,0.00,,---,0.91,VWS V14.01,2013-04-29 17:58:00,
2013-04-29 14:03:00,64.3,63.1,30.02,South,174,2.0,5.0,96,0.00,,---,0.91,VWS V14.01,2013-04-29 18:03:00,
2013-04-29 14:09:00,64.4,63.2,30.02,South,182,1.0,5.0,96,0.00,,---,0.91,VWS V14.01,2013-04-29 18:09:00,
2013-04-29 14:14:00,64.4,63.2,30.02,South,171,1.0,5.0,96,0.00,,---,0.91,VWS V14.01,2013-04-29 18:14:00,
2013-04-29 14:18:00,64.4,62.9,30.02,SSE,149,1.0,5.0,95,0.00,,---,0.91,VWS V14.01,2013-04-29 18:18:00,
2013-04-29 14:23:00,64.3,62.8,30.02,SSE,149,2.0,5.0,95,0.00,,---,0.91,VWS V14.01,2013-04-29 18:23:00,
2013-04-29 14:28:00,64.3,62.8,30.02,SSE,163,3.0,3.0,95,0.00,,---,0.91,VWS V14.01,2013-04-29 18:28:00,
2013-04-29 14:34:00,64.3,62.8,30.02,SSE,167,0.0,4.0,95,0.00,,---,0.91,VWS V14.01,2013-04-29 18:34:00,
2013-04-29 14:39:00,64.5,63.0,30.02,South,186,3.0,4.0,95,0.00,,---,0.91,VWS V14.01,2013-04-29 18:39:00,
2013-04-29 14:44:00,64.4,62.9,30.01,South,186,2.0,4.0,95,0.00,,---,0.91,VWS V14.01,2013-04-29 18:44:00,
2013-04-29 14:49:00,64.5,63.0,30.01,South,186,1.0,4.0,95,0.00,,---,0.91,VWS V14.01,2013-04-29 18:49:00,
2013-04-29 14:54:00,64.5,63.0,30.01,South,186,1.0,4.0,95,0.00,,---,0.91,VWS V14.01,2013-04-29 18:54:00,
2013-04-29 14:59:00,64.3,62.8,30.00,South,189,1.0,1.0,95,0.00,,---,0.91,VWS V14.01,2013-04-29 18:59:00,
2013-04-29 15:04:00,64.3,62.8,30.00,South,189,0.0,2.0,95,0.00,,---,0.91,VWS V14.01,2013-04-29 19:04:00,
2013-04-29 15:09:00,64.4,62.9,30.00,South,189,0.0,2.0,95,0.00,,---,0.91,VWS V14.01,2013-04-29 19:09:00,
2013-04-29 15:14:00,64.5,63.0,30.00,South,189,0.0,2.0,95,0.00,,---,0.91,VWS V14.01,2013-04-29 19:14:00,
2013-04-29 15:19:00,64.7,63.2,30.00,South,189,0.0,2.0,95,0.00,,---,0.91,VWS V14.01,2013-04-29 19:19:00,
2013-04-29 15:24:00,65.2,63.7,30.00,South,189,1.0,2.0,95,0.00,,---,0.91,VWS V14.01,2013-04-29 19:24:00,
2013-04-29 15:29:00,65.6,64.1,29.99,South,189,0.0,1.0,95,0.00,,---,0.91,VWS V14.01,2013-04-29 19:29:00,
2013-04-29 15:34:00,65.7,63.9,29.99,South,189,0.0,1.0,94,0.00,,---,0.91,VWS V14.01,2013-04-29 19:34:00,
2013-04-29 15:39:00,66.0,64.2,29.99,South,180,2.0,4.0,94,0.00,,---,0.91,VWS V14.01,2013-04-29 19:39:00,
2013-04-29 15:44:00,66.6,64.8,29.99,South,188,3.0,5.0,94,0.00,,---,0.91,VWS V14.01,2013-04-29 19:44:00,
2013-04-29 15:49:00,67.0,64.9,29.99,South,179,5.0,6.0,93,0.00,,---,0.91,VWS V14.01,2013-04-29 19:49:00,
2013-04-29 15:54:00,67.3,65.2,29.99,South,178,4.0,6.0,93,0.00,,---,0.91,VWS V14.01,2013-04-29 19:54:00,
2013-04-29 15:59:00,67.7,65.6,29.98,SE,144,3.0,4.0,93,0.00,,---,0.91,VWS V14.01,2013-04-29 19:59:00,
2013-04-29 16:04:00,67.7,65.3,29.98,SSE,160,1.0,6.0,92,0.00,,---,0.91,VWS V14.01,2013-04-29 20:04:00,
2013-04-29 16:09:00,67.9,65.2,29.98,SSW,192,5.0,6.0,91,0.00,,---,0.91,VWS V14.01,2013-04-29 20:09:00,
2013-04-29 16:14:00,67.7,65.0,29.99,SSW,193,8.0,9.0,91,0.00,,---,0.91,VWS V14.01,2013-04-29 20:14:00,
2013-04-29 16:19:00,67.5,64.5,29.99,SSW,202,10.0,13.0,90,0.00,,---,0.91,VWS V14.01,2013-04-29 20:19:00,
2013-04-29 16:24:00,66.8,63.8,29.99,SSW,206,8.0,13.0,90,0.00,,---,0.91,VWS V14.01,2013-04-29 20:24:00,
2013-04-29 16:29:00,66.3,63.3,29.99,SSW,202,11.0,12.0,90,0.00,,---,0.91,VWS V14.01,2013-04-29 20:29:00,
2013-04-29 16:34:00,66.0,63.0,29.98,SSW,205,13.0,15.0,90,0.00,,---,0.91,VWS V14.01,2013-04-29 20:34:00,
2013-04-29 16:39:00,65.6,62.6,29.98,SSW,200,10.0,15.0,90,0.00,,---,0.91,VWS V14.01,2013-04-29 20:39:00,
2013-04-29 16:44:00,65.3,62.3,29.98,SSW,202,7.0,15.0,90,0.00,,---,0.91,VWS V14.01,2013-04-29 20:44:00,
2013-04-29 16:49:00,65.2,62.5,29.98,SW,217,11.0,15.0,91,0.00,,---,0.91,VWS V14.01,2013-04-29 20:49:00,
2013-04-29 16:54:00,65.0,62.3,29.99,SSW,207,3.0,15.0,91,0.00,,---,0.91,VWS V14.01,2013-04-29 20:54:00,
2013-04-29 16:59:00,64.7,62.0,29.99,SW,225,10.0,12.0,91,0.00,,---,0.91,VWS V14.01,2013-04-29 20:59:00,
2013-04-29 17:05:00,64.5,61.8,29.99,SSW,207,7.0,12.0,91,0.00,,---,0.91,VWS V14.01,2013-04-29 21:05:00,
2013-04-29 17:10:00,64.5,62.1,30.00,SSW,209,9.0,15.0,92,0.00,,---,0.91,VWS V14.01,2013-04-29 21:10:00,
2013-04-29 17:15:00,64.4,62.0,30.00,SSW,211,10.0,17.0,92,0.00,,---,0.91,VWS V14.01,2013-04-29 21:15:00,
2013-04-29 17:20:00,64.5,62.1,29.99,SW,225,11.0,17.0,92,0.00,,---,0.91,VWS V14.01,2013-04-29 21:20:00,
2013-04-29 17:25:00,64.5,62.1,29.99,SW,217,6.0,17.0,92,0.00,,---,0.91,VWS V14.01,2013-04-29 21:25:00,
2013-04-29 17:30:00,64.4,62.3,29.99,SSW,209,6.0,11.0,93,0.00,,---,0.91,VWS V14.01,2013-04-29 21:30:00,
2013-04-29 17:35:00,64.3,62.2,29.99,SW,214,6.0,14.0,93,0.00,,---,0.91,VWS V14.01,2013-04-29 21:35:00,
2013-04-29 17:40:00,64.3,62.2,29.99,SSW,209,7.0,14.0,93,0.00,,---,0.91,VWS V14.01,2013-04-29 21:40:00,
2013-04-29 17:45:00,64.3,62.2,29.99,SSW,204,7.0,14.0,93,0.00,,---,0.91,VWS V14.01,2013-04-29 21:45:00,
2013-04-29 17:50:00,64.4,62.3,29.99,SSW,211,4.0,14.0,93,0.00,,---,0.91,VWS V14.01,2013-04-29 21:50:00,
2013-04-29 17:55:00,64.5,62.4,29.99,SW,226,10.0,14.0,93,0.00,,---,0.91,VWS V14.01,2013-04-29 21:55:00,
2013-04-29 18:00:00,64.6,62.8,29.99,SW,233,9.0,10.0,94,0.00,,---,0.91,VWS V14.01,2013-04-29 22:00:00,
2013-04-29 18:05:00,64.6,62.8,29.98,SW,217,10.0,11.0,94,0.00,,---,0.91,VWS V14.01,2013-04-29 22:05:00,
2013-04-29 18:10:00,64.6,62.8,29.98,SSW,202,5.0,11.0,94,0.00,,---,0.91,VWS V14.01,2013-04-29 22:10:00,
2013-04-29 18:16:00,64.7,62.9,29.98,SW,219,9.0,11.0,94,0.00,,---,0.91,VWS V14.01,2013-04-29 22:16:00,
2013-04-29 18:21:00,64.6,62.8,29.98,SSW,205,9.0,11.0,94,0.00,,---,0.91,VWS V14.01,2013-04-29 22:21:00,
2013-04-29 18:26:00,64.6,62.8,29.98,SSW,205,5.0,11.0,94,0.00,,---,0.91,VWS V14.01,2013-04-29 22:26:00,
2013-04-29 18:31:00,64.6,62.8,29.98,WSW,240,10.0,11.0,94,0.00,,---,0.91,VWS V14.01,2013-04-29 22:31:00,
2013-04-29 18:36:00,64.5,62.7,29.98,SW,219,8.0,11.0,94,0.00,,---,0.91,VWS V14.01,2013-04-29 22:36:00,
2013-04-29 18:41:00,64.5,62.7,29.98,SW,219,7.0,11.0,94,0.00,,---,0.91,VWS V14.01,2013-04-29 22:41:00,
2013-04-29 18:46:00,64.5,62.7,29.98,SW,224,4.0,11.0,94,0.00,,---,0.91,VWS V14.01,2013-04-29 22:46:00,
2013-04-29 18:51:00,64.4,62.6,29.98,SW,234,3.0,11.0,94,0.00,,---,0.91,VWS V14.01,2013-04-29 22:51:00,
2013-04-29 18:56:00,64.5,62.7,29.98,SSW,202,5.0,11.0,94,0.00,,---,0.91,VWS V14.01,2013-04-29 22:56:00,
2013-04-29 19:01:00,64.5,62.7,29.99,SW,236,0.0,4.0,94,0.00,,---,0.91,VWS V14.01,2013-04-29 23:01:00,
2013-04-29 19:06:00,64.5,62.7,29.99,WSW,241,3.0,5.0,94,0.00,,---,0.91,VWS V14.01,2013-04-29 23:06:00,
2013-04-29 19:11:00,64.5,62.7,29.99,West,265,3.0,10.0,94,0.00,,---,0.91,VWS V14.01,2013-04-29 23:11:00,
2013-04-29 19:16:00,64.7,62.9,29.99,SW,229,7.0,10.0,94,0.00,,---,0.91,VWS V14.01,2013-04-29 23:16:00,
2013-04-29 19:21:00,64.8,63.0,30.00,West,279,5.0,10.0,94,0.00,,---,0.91,VWS V14.01,2013-04-29 23:21:00,
2013-04-29 19:26:00,64.8,63.0,30.00,West,271,3.0,10.0,94,0.00,,---,0.91,VWS V14.01,2013-04-29 23:26:00,
2013-04-29 19:31:00,64.9,63.4,30.00,West,262,4.0,6.0,95,0.00,,---,0.91,VWS V14.01,2013-04-29 23:31:00,
2013-04-29 19:37:00,64.9,63.4,30.00,WSW,250,5.0,6.0,95,0.00,,---,0.91,VWS V14.01,2013-04-29 23:37:00,
2013-04-29 19:42:00,64.9,63.4,30.00,West,273,6.0,7.0,95,0.00,,---,0.91,VWS V14.01,2013-04-29 23:42:00,
2013-04-29 19:47:00,65.0,63.5,30.00,WSW,244,6.0,7.0,95,0.00,,---,0.91,VWS V14.01,2013-04-29 23:47:00,
2013-04-29 19:52:00,65.1,63.6,30.00,SW,219,5.0,9.0,95,0.00,,---,0.91,VWS V14.01,2013-04-29 23:52:00,
2013-04-29 19:57:00,65.2,63.7,30.00,WSW,247,4.0,11.0,95,0.00,,---,0.91,VWS V14.01,2013-04-29 23:57:00,
2013-04-29 20:02:00,65.2,63.7,30.00,SSW,200,6.0,7.0,95,0.01,,---,0.92,VWS V14.01,2013-04-30 00:02:00,
2013-04-29 20:07:00,65.2,63.7,30.00,SW,236,6.0,9.0,95,0.01,,---,0.92,VWS V14.01,2013-04-30 00:07:00,
2013-04-29 20:12:00,65.2,63.7,30.00,SW,236,4.0,9.0,95,0.01,,---,0.92,VWS V14.01,2013-04-30 00:12:00,
2013-04-29 20:17:00,65.2,63.7,30.00,WSW,254,2.0,9.0,95,0.01,,---,0.92,VWS V14.01,2013-04-30 00:17:00,
2013-04-29 20:22:00,65.2,63.7,30.00,West,265,2.0,9.0,95,0.01,,---,0.92,VWS V14.01,2013-04-30 00:22:00,
2013-04-29 20:27:00,65.2,63.7,30.00,West,265,3.0,9.0,95,0.02,,---,0.93,VWS V14.01,2013-04-30 00:27:00,
2013-04-29 20:32:00,65.2,63.7,30.00,West,265,4.0,4.0,95,0.02,,---,0.93,VWS V14.01,2013-04-30 00:32:00,
2013-04-29 20:37:00,65.2,64.0,30.00,West,265,3.0,4.0,96,0.02,,---,0.93,VWS V14.01,2013-04-30 00:37:00,
2013-04-29 20:42:00,65.2,64.0,30.00,SW,225,5.0,5.0,96,0.02,,---,0.93,VWS V14.01,2013-04-30 00:42:00,
2013-04-29 20:47:00,65.1,63.9,30.00,SSW,211,5.0,6.0,96,0.03,,---,0.94,VWS V14.01,2013-04-30 00:47:00,
2013-04-29 20:52:00,65.2,64.0,30.00,SW,216,4.0,7.0,96,0.03,,---,0.94,VWS V14.01,2013-04-30 00:52:00,
2013-04-29 20:57:00,65.2,64.0,30.00,SW,214,2.0,7.0,96,0.04,,---,0.95,VWS V14.01,2013-04-30 00:57:00,
2013-04-29 21:02:00,65.1,63.9,30.00,SW,225,2.0,6.0,96,0.04,,---,0.95,VWS V14.01,2013-04-30 01:02:00,
2013-04-29 21:07:00,65.0,63.8,30.01,SW,220,3.0,6.0,96,0.04,,---,0.95,VWS V14.01,2013-04-30 01:07:00,
2013-04-29 21:12:00,64.9,63.7,30.01,SW,219,2.0,6.0,96,0.04,,---,0.95,VWS V14.01,2013-04-30 01:12:00,
2013-04-29 21:17:00,64.9,63.7,30.01,SW,219,2.0,6.0,96,0.05,,---,0.96,VWS V14.01,2013-04-30 01:17:00,
2013-04-29 21:22:00,64.8,63.6,30.01,SW,219,2.0,6.0,96,0.05,,---,0.96,VWS V14.01,2013-04-30 01:22:00,
2013-04-29 21:27:00,64.8,63.6,30.00,SW,219,1.0,6.0,96,0.05,,---,0.96,VWS V14.01,2013-04-30 01:27:00,
2013-04-29 21:32:00,64.7,63.5,30.01,SW,219,0.0,1.0,96,0.03,,---,0.96,VWS V14.01,2013-04-30 01:32:00,
2013-04-29 21:37:00,64.7,63.5,30.01,SW,219,3.0,3.0,96,0.03,,---,0.96,VWS V14.01,2013-04-30 01:37:00,
2013-04-29 21:42:00,64.6,63.4,30.01,SSW,205,1.0,4.0,96,0.03,,---,0.96,VWS V14.01,2013-04-30 01:42:00,
2013-04-29 21:47:00,64.6,63.4,30.01,South,180,0.0,6.0,96,0.03,,---,0.96,VWS V14.01,2013-04-30 01:47:00,
2013-04-29 21:52:00,64.6,63.4,30.01,South,173,5.0,6.0,96,0.03,,---,0.96,VWS V14.01,2013-04-30 01:52:00,
2013-04-29 21:57:00,64.5,63.3,30.00,South,184,3.0,7.0,96,0.04,,---,0.97,VWS V14.01,2013-04-30 01:57:00,
2013-04-29 22:02:00,64.5,63.3,30.00,SSE,148,1.0,5.0,96,0.02,,---,0.97,VWS V14.01,2013-04-30 02:02:00,
2013-04-29 22:07:00,64.5,63.3,30.00,SE,135,4.0,5.0,96,0.02,,---,0.97,VWS V14.01,2013-04-30 02:07:00,
2013-04-29 22:12:00,64.4,63.2,30.00,ESE,123,3.0,5.0,96,0.02,,---,0.97,VWS V14.01,2013-04-30 02:12:00,
2013-04-29 22:17:00,64.2,63.0,30.00,SSE,166,2.0,7.0,96,0.02,,---,0.97,VWS V14.01,2013-04-30 02:17:00,
2013-04-29 22:22:00,64.1,62.9,30.00,SE,126,8.0,8.0,96,0.02,,---,0.97,VWS V14.01,2013-04-30 02:22:00,
2013-04-29 22:27:00,64.0,62.8,30.00,South,180,6.0,10.0,96,0.02,,---,0.97,VWS V14.01,2013-04-30 02:27:00,
2013-04-29 22:32:00,63.9,62.7,30.00,South,170,3.0,10.0,96,0.01,,---,0.97,VWS V14.01,2013-04-30 02:32:00,
2013-04-29 22:37:00,63.9,62.7,30.00,SSE,167,2.0,10.0,96,0.01,,---,0.97,VWS V14.01,2013-04-30 02:37:00,
2013-04-29 22:42:00,63.8,62.6,30.01,SSE,167,0.0,10.0,96,0.01,,---,0.97,VWS V14.01,2013-04-30 02:42:00,
2013-04-29 22:47:00,63.7,62.8,30.01,SW,223,3.0,10.0,97,0.01,,---,0.97,VWS V14.01,2013-04-30 02:47:00,
2013-04-29 22:52:00,63.7,62.5,30.00,SSW,200,8.0,10.0,96,0.01,,---,0.97,VWS V14.01,2013-04-30 02:52:00,
2013-04-29 22:58:00,63.6,62.4,30.00,SSW,204,5.0,6.0,96,0.00,,---,0.97,VWS V14.01,2013-04-30 02:58:00,
2013-04-29 23:03:00,63.5,62.3,30.00,SSW,207,1.0,6.0,96,0.00,,---,0.97,VWS V14.01,2013-04-30 03:03:00,
2013-04-29 23:08:00,63.4,62.5,30.00,SSW,209,2.0,7.0,97,0.00,,---,0.97,VWS V14.01,2013-04-30 03:08:00,
2013-04-29 23:13:00,63.3,62.4,30.00,SSW,209,0.0,7.0,97,0.00,,---,0.97,VWS V14.01,2013-04-30 03:13:00,
2013-04-29 23:18:00,63.3,62.4,30.00,SSW,209,1.0,7.0,97,0.00,,---,0.97,VWS V14.01,2013-04-30 03:18:00,
2013-04-29 23:23:00,63.2,62.3,30.00,SSW,209,1.0,7.0,97,0.00,,---,0.97,VWS V14.01,2013-04-30 03:23:00,
2013-04-29 23:28:00,63.1,61.9,30.00,SSW,209,0.0,0.0,96,0.00,,---,0.97,VWS V14.01,2013-04-30 03:28:00,
2013-04-29 23:33:00,63.1,62.2,29.99,SSW,209,0.0,1.0,97,0.00,,---,0.97,VWS V14.01,2013-04-30 03:33:00,
2013-04-29 23:38:00,63.0,62.1,29.99,SSW,209,1.0,1.0,97,0.00,,---,0.97,VWS V14.01,2013-04-30 03:38:00,
2013-04-29 23:43:00,63.0,62.1,29.99,SSW,209,0.0,2.0,97,0.00,,---,0.97,VWS V14.01,2013-04-30 03:43:00,
2013-04-29 23:48:00,62.9,62.0,29.99,SSW,209,0.0,2.0,97,0.00,,---,0.97,VWS V14.01,2013-04-30 03:48:00,
2013-04-29 23:53:00,62.9,62.0,29.99,SSW,209,0.0,2.0,97,0.00,,---,0.97,VWS V14.01,2013-04-30 03:53:00,
2013-04-29 23:58:00,62.8,61.9,29.99,SSW,209,0.0,1.0,97,0.00,,---,0.00,VWS V14.01,2013-04-30 03:58:00,